Weather in Golubinka

Russia / Rostov Oblast     47°51′54″N   40°46′35″E
temp.,
°C
wind,
m/s
gust,
m/s
humid.,
%
clouds,
%
prec.,
mm/h
press.,
hPa
HPBL,
m
4 march, thu
thu400:00−1w36780 0.0 1023193
03:00−1wsw36780 0.0 1023193
06:00−1wsw48750 0.0 1023221
09:00+2wsw711580 0.0 1022608
12:00+5wsw912480 0.0 10211086
15:00+6wsw1014500 0.0 10181110
18:00+3wsw816620 0.0 1017723
21:00+2sw818770 0.0 1016687
5 march, fri
fri500:00+2sw8188549 0.0 1015728
03:00+2wsw10198651 0.0 1014733
06:00+3wsw9188699 0.0 1014814
09:00+4wsw9158499 0.0 1014803
12:00+6wsw91477100 0.0 1014962
15:00+6wsw81377100 0.0 10141025
18:00+6wsw61379100 0.0 1014724
21:00+4sw41387100 0.0 1015518
6 march, sat
sat600:00+3ssw41090100 0.0 1013291
03:00+3ssw51488100 0.0 1012568
06:00+4sw51486100 0.0 1011601
09:00+5wsw71388100 0.0 1010652
12:00+5wsw71291100 0.8 1011639
15:00+2nw71095100 1.8 1011518
18:00+1nnw6979100 0.1 1013835
21:000nw71182100 0.1 1017919
7 march, sun
sun700:00−2nw7126962 0.0 1019900
03:00−3nw7116131 0.0 10211085
06:00−3nw6106125 0.0 10231232
09:00−2wnw585344 0.0 10251026
12:00+1w57400 0.0 10241437
15:00+1wsw78400 0.0 10231407
18:00−1sw712562 0.0 1021619
21:00−2wsw715602 0.0 1020613
8 march, mon
mon800:00−1wsw714680 0.0 1019629
03:00−1wsw714680 0.0 1017645
06:00−1sw715690 0.0 1016709
09:00+2wsw10156330 0.0 10151161
12:00+5wsw10144931 0.0 10141704
15:00+5wsw9135660 0.0 10141768
18:00+3wsw7137397 0.1 1014797
21:00+1wsw6147961 0.1 1015555